User: anonymous   Login
Location: Napier
(39.4830°S, 176.9170°E)
Time: 14:07:46
(UTC+13:00)
Language:

Helios 1A Rocket - Orbit

View from above orbital plane
View from above orbital plane
View from above satellite
View from above satellite

Ground track
Ground track

The orbit data is extracted from the following two-line orbital elements,

1 23608U 95033D   20293.15429524  .00000592  00000-0  56521-4 0  9996
2 23608  98.3204 312.4810 0016160 185.4605 174.6442 14.97416166370260
Epoch (UTC): 19 October 2020 03:42:11
Eccentricity: 0.0016160
inclination: 98.3204°
perigee height: 563 km
apogee height: 586 km
right ascension of ascending node: 312.4810°
argument of perigee: 185.4605°
revolutions per day: 14.97416166
mean anomaly at epoch: 174.6442°
orbit number at epoch: 37026

The dashed part of the orbit path shows where the satellite is in the earth's shadow,  

DLR